CGBZR CYWG-CYWG

Flight info

Callsign CGBZR
Flight time 0h 32m
Altitude 3000
Route CYWG/18 CYWG/36
Aircraft SR22/L-V/N

Departure

Time 2026-05-09 08:14
Airport Winnipeg / James Armstrong Richardson International Airport (CYWG)

Arrival

Time 2026-05-09 08:46
Airport Winnipeg / James Armstrong Richardson International Airport (CYWG)
Time Latitude Longitude Altitude Speed Heading
2026-05-09 08:10 50.05390 -97.03879 761 ft 0 kts
2026-05-09 08:13 50.05403 -97.03876 761 ft 17 kts
2026-05-09 08:13 50.05782 -97.03799 758 ft 90 kts
2026-05-09 08:13 50.06518 -97.03656 984 ft 128 kts
2026-05-09 08:14 50.07582 -97.03367 1040 ft 171 kts 11°
2026-05-09 08:14 50.08855 -97.02919 1207 ft 195 kts 13°
2026-05-09 08:14 50.10152 -97.02260 1541 ft 197 kts 19°
2026-05-09 08:14 50.11432 -97.01517 1843 ft 199 kts 20°
2026-05-09 08:15 50.12714 -97.00714 2218 ft 198 kts 22°
2026-05-09 08:15 50.13948 -96.99721 2522 ft 202 kts 28°
2026-05-09 08:15 50.15178 -96.98521 2510 ft 215 kts 31°
2026-05-09 08:15 50.16449 -96.97233 2508 ft 220 kts 31°
2026-05-09 08:16 50.17125 -96.95473 3123 ft 191 kts 108°
2026-05-09 08:16 50.16232 -96.94265 3016 ft 176 kts 160°
2026-05-09 08:16 50.15003 -96.93668 2380 ft 190 kts 167°
2026-05-09 08:16 50.13701 -96.93279 1879 ft 188 kts 176°
2026-05-09 08:17 50.12507 -96.93232 1895 ft 149 kts 201°
2026-05-09 08:17 50.11504 -96.93340 1662 ft 180 kts 167°
2026-05-09 08:17 50.10267 -96.93276 1434 ft 174 kts 188°
2026-05-09 08:17 50.09086 -96.93435 942 ft 176 kts 159°
2026-05-09 08:18 50.08180 -96.92527 1940 ft 150 kts 146°
2026-05-09 08:18 50.07296 -96.91609 2114 ft 163 kts 154°
2026-05-09 08:18 50.06355 -96.92011 2489 ft 142 kts 228°
2026-05-09 08:18 50.05754 -96.93327 2670 ft 153 kts 250°
2026-05-09 08:19 50.05452 -96.94978 2741 ft 169 kts 262°
2026-05-09 08:19 50.05301 -96.96623 2585 ft 140 kts 284°
2026-05-09 08:19 50.05728 -96.97794 2438 ft 118 kts 302°
2026-05-09 08:19 50.06061 -96.98987 2080 ft 122 kts 296°
2026-05-09 08:20 50.06358 -97.00149 1824 ft 115 kts 295°
2026-05-09 08:20 50.06718 -97.01192 1678 ft 93 kts 305°
2026-05-09 08:20 50.07055 -97.01928 1437 ft 77 kts 310°
2026-05-09 08:20 50.07350 -97.02608 1215 ft 75 kts 278°
2026-05-09 08:21 50.07010 -97.03221 1110 ft 85 kts 220°
2026-05-09 08:21 50.06495 -97.03584 877 ft 82 kts 200°
2026-05-09 08:21 50.05937 -97.03765 758 ft 74 kts 191°
2026-05-09 08:21 50.05442 -97.03877 832 ft 75 kts 189°
2026-05-09 08:22 50.04975 -97.04073 893 ft 70 kts 158°
2026-05-09 08:22 50.04996 -97.03498 941 ft 76 kts 14°
2026-05-09 08:22 50.05403 -97.03037 780 ft 69 kts 40°
2026-05-09 08:22 50.05739 -97.02536 986 ft 67 kts 37°
2026-05-09 08:23 50.06184 -97.02518 1130 ft 74 kts 311°
2026-05-09 08:23 50.06507 -97.03148 1068 ft 76 kts 302°
2026-05-09 08:23 50.06224 -97.03779 891 ft 101 kts 175°
2026-05-09 08:23 50.05569 -97.03848 833 ft 89 kts 193°
2026-05-09 08:24 50.04968 -97.04040 925 ft 83 kts 141°
2026-05-09 08:24 50.05152 -97.03393 800 ft 83 kts 33°
2026-05-09 08:24 50.05508 -97.02846 794 ft 64 kts 39°
2026-05-09 08:24 50.05838 -97.02335 1015 ft 68 kts 35°
2026-05-09 08:25 50.06240 -97.02305 1202 ft 67 kts 314°
2026-05-09 08:25 50.06399 -97.03038 1112 ft 81 kts 262°
2026-05-09 08:25 50.06037 -97.03685 851 ft 83 kts 205°
2026-05-09 08:25 50.05459 -97.03870 836 ft 84 kts 191°
2026-05-09 08:26 50.05183 -97.03623 908 ft 87 kts 88°
2026-05-09 08:26 50.05489 -97.02884 1051 ft 94 kts 44°
2026-05-09 08:26 50.05962 -97.02129 1226 ft 99 kts 41°
2026-05-09 08:26 50.06424 -97.01408 1544 ft 90 kts 41°
2026-05-09 08:27 50.06692 -97.00556 1637 ft 106 kts 114°
2026-05-09 08:27 50.06050 -97.00238 1750 ft 109 kts 205°
2026-05-09 08:27 50.05725 -97.01087 1767 ft 84 kts 317°
2026-05-09 08:27 50.06312 -97.01599 1539 ft 102 kts 333°
2026-05-09 08:28 50.06960 -97.02053 1354 ft 99 kts 337°
2026-05-09 08:28 50.07377 -97.02802 1149 ft 101 kts 279°
2026-05-09 08:28 50.06933 -97.03573 922 ft 117 kts 189°
2026-05-09 08:28 50.06120 -97.03729 761 ft 115 kts 189°
2026-05-09 08:29 50.05382 -97.03902 807 ft 104 kts 191°
2026-05-09 08:29 50.04815 -97.03673 857 ft 85 kts 99°
2026-05-09 08:29 50.05141 -97.02993 962 ft 93 kts 19°
2026-05-09 08:29 50.05595 -97.03481 1062 ft 98 kts 256°
2026-05-09 08:30 50.05100 -97.04063 943 ft 85 kts 197°
2026-05-09 08:30 50.04834 -97.03704 869 ft 79 kts 23°
2026-05-09 08:30 50.05281 -97.03217 820 ft 78 kts 43°
2026-05-09 08:30 50.05757 -97.02675 842 ft 93 kts
2026-05-09 08:31 50.06314 -97.02965 933 ft 92 kts 318°
2026-05-09 08:31 50.06405 -97.03698 925 ft 91 kts 201°
2026-05-09 08:31 50.05781 -97.03797 775 ft 81 kts 189°
2026-05-09 08:31 50.05280 -97.03919 780 ft 67 kts 192°
2026-05-09 08:32 50.04835 -97.03857 802 ft 69 kts 123°
2026-05-09 08:32 50.04691 -97.03085 981 ft 77 kts 98°
2026-05-09 08:32 50.03716 -97.03304 1335 ft 106 kts 216°
2026-05-09 08:33 50.02913 -97.04071 1077 ft 172 kts 209°
2026-05-09 08:33 50.01766 -97.05009 1193 ft 200 kts 208°
2026-05-09 08:33 50.01072 -97.04988 2675 ft 115 kts 96°
2026-05-09 08:33 50.01151 -97.03369 2459 ft 168 kts 50°
2026-05-09 08:34 50.02185 -97.01877 1432 ft 238 kts 34°
2026-05-09 08:34 50.03616 -97.00311 796 ft 256 kts 37°
2026-05-09 08:34 50.03700 -96.98214 1823 ft 214 kts 146°
2026-05-09 08:34 50.02342 -96.98242 2377 ft 212 kts 210°
2026-05-09 08:35 50.01308 -97.00073 2122 ft 232 kts 242°
2026-05-09 08:35 50.00630 -97.02296 2376 ft 227 kts 266°
2026-05-09 08:35 50.01448 -97.04134 2073 ft 223 kts 345°
2026-05-09 08:35 50.02864 -97.04289 1453 ft 198 kts
2026-05-09 08:36 50.04195 -97.04133 993 ft 186 kts
2026-05-09 08:36 50.05406 -97.03860 779 ft 162 kts
2026-05-09 08:36 50.06396 -97.03627 826 ft 129 kts
2026-05-09 08:36 50.07341 -97.03170 1066 ft 159 kts 23°
2026-05-09 08:37 50.08343 -97.02275 1381 ft 176 kts 30°
2026-05-09 08:37 50.09371 -97.01226 1735 ft 162 kts 33°
2026-05-09 08:37 50.09748 -97.00756 1790 ft 142 kts 41°
2026-05-09 08:39 50.10285 -96.99812 1281 ft 154 kts 55°
2026-05-09 08:39 50.10982 -96.98896 1314 ft 124 kts
2026-05-09 08:39 50.11620 -96.99622 1315 ft 128 kts 278°
2026-05-09 08:39 50.11154 -97.00757 1542 ft 140 kts 202°
2026-05-09 08:40 50.10096 -97.00780 1465 ft 163 kts 177°
2026-05-09 08:40 50.09025 -97.01173 1727 ft 163 kts 211°
2026-05-09 08:40 50.08028 -97.02129 1921 ft 171 kts 216°
2026-05-09 08:40 50.07018 -97.03131 2285 ft 171 kts 218°
2026-05-09 08:41 50.06076 -97.04281 2559 ft 182 kts 222°
2026-05-09 08:41 50.05040 -97.05460 2586 ft 187 kts 218°
2026-05-09 08:41 50.03931 -97.06551 2537 ft 190 kts 216°
2026-05-09 08:41 50.02893 -97.07816 2484 ft 190 kts 226°
2026-05-09 08:42 50.01837 -97.09057 2391 ft 192 kts 219°
2026-05-09 08:42 50.00753 -97.10237 2253 ft 193 kts 218°
2026-05-09 08:42 49.99632 -97.11374 2129 ft 191 kts 216°
2026-05-09 08:42 49.98670 -97.12710 2017 ft 184 kts 242°
2026-05-09 08:43 49.98174 -97.14482 2002 ft 176 kts 251°
2026-05-09 08:43 49.97737 -97.16223 1999 ft 173 kts 251°
2026-05-09 08:43 49.97297 -97.17978 1997 ft 174 kts 251°
2026-05-09 08:43 49.96854 -97.19735 1943 ft 176 kts 251°
2026-05-09 08:44 49.96386 -97.21464 1934 ft 162 kts 248°
2026-05-09 08:44 49.95880 -97.22892 1923 ft 145 kts 231°
2026-05-09 08:44 49.94977 -97.23484 1870 ft 147 kts 185°
2026-05-09 08:44 49.93989 -97.23350 1484 ft 136 kts 177°
2026-05-09 08:45 49.93201 -97.23230 1338 ft 108 kts 186°
2026-05-09 08:45 49.92509 -97.23388 1070 ft 98 kts 196°
2026-05-09 08:45 49.91847 -97.23604 880 ft 92 kts 194°
2026-05-09 08:45 49.91234 -97.23783 822 ft 90 kts 193°
2026-05-09 08:46 49.90628 -97.23927 809 ft 84 kts 191°
2026-05-09 08:46 49.90101 -97.24060 780 ft 60 kts 187°
2026-05-09 08:46 49.89796 -97.24137 783 ft 34 kts 183°
2026-05-09 08:46 49.89610 -97.24194 783 ft 18 kts 225°
2026-05-09 08:47 49.89600 -97.24341 782 ft 15 kts 277°
2026-05-09 08:47 49.89616 -97.24517 781 ft 17 kts 278°
2026-05-09 08:47 49.89658 -97.24642 781 ft 14 kts 348°
2026-05-09 08:47 49.89762 -97.24651 781 ft 16 kts
2026-05-09 08:48 49.89881 -97.24630 781 ft 18 kts
2026-05-09 08:48 49.90011 -97.24601 781 ft 20 kts
2026-05-09 08:48 49.90130 -97.24591 781 ft 17 kts
2026-05-09 08:48 49.90253 -97.24555 781 ft 19 kts 11°
2026-05-09 08:49 49.90390 -97.24543 781 ft 20 kts
2026-05-09 08:49 49.90535 -97.24548 781 ft 20 kts
2026-05-09 08:49 49.90616 -97.24570 781 ft 9 kts 284°
2026-05-09 08:49 49.90608 -97.24682 781 ft 12 kts 263°
2026-05-09 08:50 49.90593 -97.24817 781 ft 14 kts 260°
2026-05-09 08:50 49.90574 -97.24972 781 ft 16 kts 260°
2026-05-09 08:50 49.90568 -97.25147 781 ft 17 kts 267°
2026-05-09 08:50 49.90561 -97.25341 781 ft 19 kts 268°
2026-05-09 08:51 49.90551 -97.25546 781 ft 18 kts 261°
2026-05-09 08:51 49.90537 -97.25738 781 ft 15 kts 266°
2026-05-09 08:51 49.90531 -97.25836 781 ft 7 kts 261°
2026-05-09 08:51 49.90525 -97.25901 781 ft 4 kts 272°
2026-05-09 08:52 49.90549 -97.25939 781 ft 7 kts 347°
2026-05-09 08:52 49.90595 -97.25945 781 ft 4 kts 360°
2026-05-09 08:52 49.90608 -97.25953 781 ft 1 kts 308°
2026-05-09 08:52 49.90609 -97.25954 781 ft 0 kts 308°
2026-05-09 08:53 49.90621 -97.25970 781 ft 2 kts 331°
2026-05-09 08:53 49.90629 -97.25987 781 ft 1 kts 286°
2026-05-09 08:53 49.90631 -97.25993 781 ft 1 kts 313°
2026-05-09 08:53 49.90641 -97.25996 781 ft 2 kts
2026-05-09 08:54 49.90641 -97.25988 781 ft 0 kts 137°